Other Public Products
Issued by NWS Grand Forks, ND

Home | Current Version | Previous Version | Text Only | Print | Product List | Glossary Off
Versions: 1 2 3 4 5 6 7 8 9 10 11 12 13 14 15 16 17 18 19 20 21 22 23 24 25 26 27 28 29 30 31 32 33 34 35 36 37 38 39 40 41 42 43 44 45 46 47 48 49 50

000
FPUS83 KFGF 282331
OPUFGF
PRAIRIE TO PINES WEATHER ROUNDUP
NATIONAL WEATHER SERVICE EASTERN NORTH DAKOTA/GRAND FORKS ND
600 PM CDT SUN MAY 28 2017

 **SATELLITE DATA USED TO AUGMENT SKY COVER AT AUTOMATED STATIONS**
 *****  WEATHER ACROSS EASTERN NORTH DAKOTA  *****

CITY           SKY/WX    TMP DP  RH WIND       PRES   REMARKS
GRAND FORKS    CLOUDY    56  51  84 N15G24    29.75R
GRAND FORKS AF CLOUDY    56  47  71 N23G29    29.76R
GRAND CITY NWS NOT AVBL
BUXTON           N/A     43  49 100 N17G30      N/A
DEVILS LAKE    CLOUDY    57  45  64 NW21G30   29.82R
FARGO          FAIR      64  48  56 NW16      29.74S
WAHPETON ARPT  FAIR      63  37  39 W17G23    29.76F
$$

 *****  WEATHER ACROSS CENTRAL AND WESTERN NORTH DAKOTA  *****

CITY           SKY/WX    TMP DP  RH WIND       PRES   REMARKS
JAMESTOWN      FAIR      58  46  64 N30G44    29.83R
BISMARCK       FAIR      72  36  26 NW30G40   29.87R
MINOT          PTSUNNY   65  40  39 NW29G38   29.88S
MINOT AFB      LGT RAIN  61  43  51 N33G41    29.88R SQUALL
GARRISON         N/A     68  34  28 NW30G43   29.88F
WILLISTON      PTSUNNY   69  32  25 N28G38    29.98F
DICKINSON      FAIR      69  28  21 NW25G36   29.95R
HETTINGER      FAIR      72  32  23 NW32G41   29.96S
$$

 *****  OTHER OBSERVATIONS NORTHEAST NORTH DAKOTA  *****

CITY           SKY/WX    TMP DP  RH WIND       PRES   REMARKS
WALHALLA       NOT AVBL
LANGDON        CLOUDY    52  50  93 NW21G28   29.80R
CAVALIER       CLOUDY    55  46  71 MISG      29.76R
GRAFTON        MOCLDY    57  48  72 NW21      29.78R
CANDO          NOT AVBL
FORT TOTTEN      N/A     57  47  69 NW10      29.95S
ROLLA          CLOUDY    55  45  67 NW24G30   29.84S
RUGBY          NOT AVBL
 ***** THE ABOVE OBSERVATIONS ARE NON NWS ARE NOT QUALITY
        CONTROLLED AND MAY MIS-REPORT RAIN FOR SNOW...
$$

 *****  OTHER OBSERVATIONS SOUTHEAST NORTH DAKOTA *****

CITY           SKY/WX    TMP DP  RH WIND       PRES   REMARKS
COOPERSTOWN    MOCLDY    57  46  67 NW25G36   29.81R
VALLEY CITY    LGT RAIN  59  45  58 NW26G39   29.81R
OAKES          NOT AVBL
GWINNER        CLEAR     61  48  63 MISG      29.80R
SHEYENNE NWR     N/A     65  46  50 NW8       29.95S
BUFFALO          N/A     55  47  74 CALM        N/A
WYNDMERE         N/A     64  45  48 W12         N/A
 ***** THE ABOVE OBSERVATIONS ARE NON NWS ARE NOT QUALITY
       CONTROLLED AND MAY MIS-REPORT RAIN FOR SNOW...
$$

  *****  WEATHER ACROSS NORTHERN MINNESOTA  *****

CITY           SKY/WX    TMP DP  RH WIND       PRES   REMARKS
FLAG ISLAND    FAIR      57  50  77 NW9       29.65S
WARROAD        FAIR      59  48  67 NW14      29.68R
ROSEAU         LGT RAIN  52  46  82 W12G20    29.69R
HALLOCK        CLOUDY    57  46  67 NW21G32   29.74R
THF RVR FALLS  CLOUDY    57  47  69 NW14      29.72R
HALSTAD          N/A     60  50  70 NW13        N/A
FOSSTON        RAIN      57  48  72 W13       29.71S
BAUDETTE       PTSUNNY   61  51  70 NW12G18   29.64S
WASKISH        CLOUDY    61  52  72 W12       29.66S
CROOKSTON      CLOUDY    54  54 100 NW15      29.74R
$$
  *****  WEATHER ACROSS CENTRAL AND WEST MINNESOTA  *****

CITY           SKY/WX    TMP DP  RH WIND       PRES   REMARKS
BEMIDJI        PTSUNNY   60  46  58 W16G22    29.68S
PARK RAPIDS    FAIR      56  47  71 W12       29.72F
WADENA         LGT RAIN  54  46  76 W8G22     29.75R
DETROIT LAKES  FAIR      59  50  72 NW7       29.74F
MOORHEAD       FAIR      64  45  48 NW17G24   29.75S
FERGUS FALLS   FAIR      61  48  63 W10G17    29.74F
ELBOW LAKE     FAIR      61  45  56 NW12G18   29.78F
MORRIS MN      FAIR      57  48  72 NW17G37   29.80R
STAPLES        PTSUNNY   57  43  58 NW10      29.74R
WHEATON        FAIR      59  45  58 W14G20    29.80F
$$
  *****  WEATHER ELSEWHERE ACROSS MINNESOTA  *****

CITY           SKY/WX    TMP DP  RH WIND       PRES   REMARKS
DULUTH         FAIR      62  47  57 W18G26    29.65S
INTRNTL FALLS  RAIN      57  50  77 W7        29.62S
ELY            RAIN      52  48  87 W3        29.64R
CLOQUET        FAIR      61  46  59 W10G18    29.67S
BRAINERD       CLOUDY    54  48  80 NW8       29.73F
HIBBING        FAIR      53  51  93 W6        29.65S
ALEXANDRIA     FAIR      61  46  57 NW22G32   29.78R
SAINT CLOUD    FAIR      67  47  48 NW14G24   29.73S
MINNEAPOLIS    PTSUNNY   70  43  37 NW14G22   29.73S
$$

  *****  WEATHER ACROSS SOUTH DAKOTA  *****

CITY           SKY/WX    TMP DP  RH WIND       PRES   REMARKS
SIOUX FALLS    FAIR      72  41  32 NW17      29.84F
BROOKINGS      LGT RAIN  66  43  42 N21       29.83F
WATERTOWN      PTSUNNY   58  48  69 N9        29.84R
HURON          LGT RAIN  65  49  56 N22G35    29.84R
SISSETON         N/A     64  48  56 N17G29    29.80F
ABERDEEN       CLOUDY    66  45  46 NW9       29.83F
MITCHELL       FAIR      79  36  21 NW16      29.85F
PIERRE         FAIR      74  37  26 W18       29.89F
MOBRIDGE       FAIR      76  37  24 N21G31    29.83R
RAPID CITY     LGT RAIN  54  48  80 NW13      30.08R
$$

  *****  SOME WEATHER IN NEARBY STATES *****

CITY           SKY/WX    TMP DP  RH WIND       PRES   REMARKS
GLASGOW MT     FAIR      73  28  18 N28G36    30.08S
GREAT FALLS MT FAIR      71  43  36 E9        30.21F
CHEYENNE WY    PTSUNNY   64  36  35 NE10      30.22F
SCOTTSBLUFF NE LGT RAIN  59  47  64 N23G38    30.17R
OMAHA NE       FAIR      79  39  23 N23G30    29.89R
DES MOINES IA  FAIR      80  40  23 W25G33    29.80F
DAVENPORT IA   FAIR      77  45  32 W21       29.79R
CHICAGO IL     FAIR      75  52  44 W14       29.73S
EAU CLAIRE WI  FAIR      69  46  43 W13       29.69F
LA CROSSE WI   FAIR      75  45  34 W17       29.71F
$$

  *****  SOME NATIONAL WEATHER *****

CITY           SKY/WX    TMP DP  RH WIND       PRES   REMARKS
LA GUARDIA NY  CLOUDY    66  48  52 SE13G20   29.94F
RALEIGH NC     PTSUNNY   81  66  60 W6        29.82R
ATLANTA GA     PTSUNNY   82  66  58 W7        29.93R
NEW ORLEANS LA PTSUNNY   87  72  60 S12       29.92F HX  93
OKLAHOMA CITY  FAIR      82  46  28 N13       30.00F
ALBUQUERQUE NM FAIR      80  22  11 NW7       30.15F
SALT LAKE CITY FAIR      78  34  20 NW9       30.16F
LOS ANGELES CA FAIR      67  55  65 W17       29.98F
BOISE ID       FAIR      84  32  15 VRB5      30.11F
SEATTLE WA     FAIR      85  48  27 N10       30.05F
$$

*** WEATHER ACROSS MANITOBA...SASKATCHEWAN AND ONTARIO ***
                ***ONTARIO***

CITY           SKY/WX    TMP DP  RH WIND       PRES   REMARKS
GERALDTON      CLOUDY    64  46  52 E8        29.60S
THUNDER BAY    LGT RAIN  52  48  87 NE6       29.62R
SIOUX LOOKOUT  LGT RAIN  55  52  88 W5        29.61S
TORONTO        PTSUNNY   68  57  68 E7        29.73S
BIG TROUT LK     N/A     68  48  49 N7          N/A
PICKLE LAKE    PTSUNNY   66  45  45 S8        29.59S
DRYDEN         LGT RAIN  54  52  94 E3        29.61R
KENORA         LGT RAIN  59  48  67 N13G18    29.63S
$$
                *** MANITOBA***

CITY           SKY/WX    TMP DP  RH WIND       PRES   REMARKS
BRANDON        PTSUNNY   57  45  62 NW22G32   29.84R
DAUPHIN        CLOUDY    54  46  76 N21G31    29.84R
ISLAND LAKE    CLOUDY    48  46  93 N9        29.70R
PILOT MOUND      N/A     52  46  82 NW21G26     N/A
THE PAS        LGT RAIN  46  43  87 N15G21    29.90R
THOMPSON       LGT RAIN  39  37  93 N9        29.82R
WINNIPEG       LGT RAIN  52  50  93 N15G21    29.75R FOG
LYNN LAKE      CLOUDY    52  43  71 N15G22    29.93R
CHURCHILL      LGT RAIN  34  34 100 N17       29.86R WCI  23
GILLAM         CLOUDY    39  36  87 N9        29.76R
$$
                ***SASKATCHEWAN***

CITY           SKY/WX    TMP DP  RH WIND       PRES   REMARKS
ESTEVAN        LGT RAIN  55  41  58 N26G35    29.98R
KINDERSLEY     MOSUNNY   64  30  27 N20G28    30.18R
LLOYDMINSTER   MOSUNNY   63  28  27 N17G24    30.20S
PRINCE ALBERT  PTSUNNY   61  41  48 N17G31    30.08R
REGINA         MOSUNNY   64  37  36 N26G36    30.02R
YORKTON        LGT RAIN  54  46  76 N28G35    29.94R



USA.gov is the U.S. government's official web portal to all federal, state and local government web resources and services.